Content
SEND FEEDBACK

Daily
Averages
Monthly
Summary
United States of America

FAYETTEVILLE, TENNESSEE


Home > North America > United States > Tennessee
Elevation: 700 feet     Latitude: 35 10N     Longitude: 086 33W

WEATHER
 
SELECT A DAY
Number of Records: 307,919;   Date Range: 4/22/02 - 11/26/14
 
SHARE

PRINT THIS DATA

[ ← Previous Day ]
WEATHER ALMANAC - DECEMBER 22, 2013
[ Next Day → ]
[ °C ]   °F
Weather ElementAverageHighLow
Temperature55.7 °F60.8 °F (12:35 am)53.6 °F (6:55 am)
Dewpoint51.5 °F55.4 °F (12:35 am)50 °F (3:35 pm)
Humidity86.1 %94 % (6:55 am)72 % (3:35 pm)
Barometer29.96 in30.08 in (8:55 pm)29.79 in (12:35 am)
Wind Speed5.4 mph21.9 mph (1:35 am)
Wind Gust36.8 mph (12:35 am)
Weather ElementAverage
Visibility9.3 mi
Wind DirectionSSE (153.1 °)

Weather ElementTotal
Precipitation4.00 in
Heating Degree Days7.8 (Base 65)
Growing Degree Days7.2 (Base 50)
Averaged from 71 records on December 22, 2013
WEATHER CONDITIONS BREAKOUT
WIND DIRECTION BREAKOUT
WEATHER BY HOUR - DECEMBER 22, 2013
[ °C ]   °F
Local TimeTemperatureDewpointHumidityBarometerVisibilityWind DirectionWind SpeedGust SpeedPrecipitationEventsConditions
12:35 AM60.8 °F55.4 °F82 %29.79 in1.0 miWest (270°)18.4 mph36.8 mph0.89 inRain-ThunderstormHeavy Thunderstorms and Rain
12:55 AM59.0 °F55.4 °F88 %29.79 in1.8 miWest (270°)17.3 mph29.9 mph1.36 inRain-ThunderstormHeavy Thunderstorms and Rain
1:15 AM59.0 °F55.4 °F88 %29.83 in1.8 miSSW (210°)19.6 mph26.5 mph0.38 inRain-ThunderstormHeavy Thunderstorms and Rain
1:35 AM59.0 °F55.4 °F88 %29.83 in3.0 miSW (220°)21.9 mph28.8 mph0.49 inRain-ThunderstormHeavy Thunderstorms and Rain
1:55 AM57.2 °F53.6 °F88 %29.83 in7.0 miSW (220°)17.3 mph23.0 mph0.51 inRainRain
2:15 AM57.2 °F53.6 °F88 %29.83 in7.0 miSW (220°)9.2 mph0.01 inRain-ThunderstormRain
2:35 AM57.2 °F51.8 °F82 %29.86 in7.0 miSSW (200°)12.7 mph16.1 mph0.03 inRainLight Rain
2:55 AM57.2 °F53.6 °F88 %29.84 in10.0 miSouth (180°)5.8 mph0.04 inRainLight Rain
3:15 AM57.2 °F53.6 °F88 %29.85 in10.0 miSSE (150°)9.2 mph0.01 inRainRain
3:35 AM55.4 °F51.8 °F88 %29.83 in10.0 miSE (140°)5.8 mph0.02 inThunderstormDrizzle
3:55 AM55.4 °F51.8 °F88 %29.85 in10.0 miSouth (170°)4.6 mph0.04 inRain-ThunderstormThunderstorms and Rain
4:15 AM55.4 °F51.8 °F88 %29.85 in10.0 miSouth (190°)6.9 mph0.01 inRainLight Rain
4:35 AM55.4 °F51.8 °F88 %29.86 in10.0 miSSW (200°)10.4 mph17.3 mph0.01 inRainRain
4:55 AM55.4 °F51.8 °F88 %29.88 in7.0 miSW (220°)8.1 mph0.03 inRain-ThunderstormThunderstorms and Rain
5:15 AM55.4 °F51.8 °F88 %29.87 in7.0 miCalm0.03 inRain-ThunderstormHeavy Thunderstorms and Rain
5:35 AM55.4 °F51.8 °F88 %29.87 in7.0 miSSE (150°)4.6 mph0.06 inRainRain
5:55 AM55.4 °F51.8 °F88 %29.86 in10.0 miSouth (170°)4.6 mph0.08 inRainRain
6:15 AM55.4 °F51.8 °F88 %29.87 in10.0 miSouth (170°)5.8 mphRainLight Rain
6:35 AM55.4 °F51.8 °F88 %29.89 in10.0 miSSW (200°)3.5 mphMostly Cloudy
6:55 AM53.6 °F51.8 °F94 %29.90 in10.0 miSouth (170°)5.8 mphOvercast
7:15 AM55.4 °F51.8 °F88 %29.91 in10.0 miSouth (190°)5.8 mphMostly Cloudy
7:35 AM53.6 °F51.8 °F94 %29.91 in10.0 miSouth (180°)4.6 mphMostly Cloudy
7:55 AM53.6 °F51.8 °F94 %29.92 in10.0 miSouth (180°)3.5 mphMostly Cloudy
8:15 AM53.6 °F51.8 °F94 %29.96 in10.0 miSouth (190°)9.2 mphMostly Cloudy
8:35 AM55.4 °F51.8 °F88 %29.95 in10.0 miSouth (180°)6.9 mphOvercast
8:55 AM55.4 °F51.8 °F88 %29.95 in10.0 miSouth (190°)3.5 mphOvercast
9:15 AM55.4 °F51.8 °F88 %29.97 in10.0 miSouth (180°)5.8 mphRainLight Rain
9:35 AM55.4 °F51.8 °F88 %29.99 in10.0 miSSW (200°)6.9 mphOvercast
9:55 AM55.4 °F51.8 °F88 %29.98 in10.0 miSSW (200°)6.9 mphOvercast
10:15 AM55.4 °F51.8 °F88 %29.99 in10.0 miSouth (180°)8.1 mphMostly Cloudy
10:35 AM55.4 °F51.8 °F88 %29.97 in10.0 miSouth (180°)5.8 mphOvercast
10:55 AM55.4 °F51.8 °F88 %29.98 in10.0 miSSW (200°)6.9 mphOvercast
11:15 AM55.4 °F51.8 °F88 %29.97 in10.0 miSSW (200°)6.9 mphOvercast
11:35 AM55.4 °F51.8 °F88 %29.97 in10.0 miSW (220°)4.6 mphOvercast
11:55 AM55.4 °F51.8 °F88 %29.96 in10.0 miSouth (190°)3.5 mphOvercast
12:15 PM57.2 °F51.8 °F82 %29.97 in10.0 miSW (230°)6.9 mphOvercast
12:35 PM57.2 °F51.8 °F82 %29.97 in10.0 miSSW (200°)4.6 mphOvercast
12:55 PM57.2 °F51.8 °F82 %29.96 in10.0 miSouth (190°)4.6 mphMostly Cloudy
1:15 PM57.2 °F51.8 °F82 %29.96 in10.0 miSouth (180°)4.6 mphScattered Clouds
1:35 PM57.2 °F51.8 °F82 %29.96 in10.0 miSSW (200°)4.6 mphMostly Cloudy
1:55 PM57.2 °F51.8 °F82 %29.96 in10.0 miCalmMostly Cloudy
2:15 PM57.2 °F51.8 °F82 %29.97 in10.0 miSouth (190°)5.8 mphMostly Cloudy
2:35 PM57.2 °F51.8 °F82 %29.97 in10.0 miSouth (190°)5.8 mphMostly Cloudy
2:55 PM57.2 °F51.8 °F82 %29.96 in10.0 miSSE (160°)4.6 mphOvercast
3:15 PM57.2 °F51.8 °F82 %29.97 in10.0 miSouth (190°)4.6 mphMostly Cloudy
3:35 PM59.0 °F50.0 °F72 %29.96 in10.0 miSSE (160°)4.6 mphMostly Cloudy
3:55 PM57.2 °F50.0 °F77 %29.98 in10.0 miCalmMostly Cloudy
4:15 PM57.2 °F50.0 °F77 %30.01 in10.0 miSSW (200°)5.8 mphMostly Cloudy
4:35 PM55.4 °F50.0 °F82 %30.00 in10.0 miSSW (200°)4.6 mphMostly Cloudy
4:55 PM55.4 °F50.0 °F82 %30.01 in10.0 miSW (220°)4.6 mphScattered Clouds
5:15 PM55.4 °F50.0 °F82 %30.02 in10.0 miWSW (240°)3.5 mphMostly Cloudy
5:35 PM55.4 °F50.0 °F82 %30.03 in10.0 miSouth (180°)3.5 mphMostly Cloudy
5:55 PM55.4 °F50.0 °F82 %30.03 in10.0 miSSW (200°)3.5 mphScattered Clouds
6:15 PM55.4 °F50.0 °F82 %30.02 in10.0 miCalmScattered Clouds
6:35 PM55.4 °F50.0 °F82 %30.03 in10.0 miSSE (160°)3.5 mphScattered Clouds
6:55 PM55.4 °F50.0 °F82 %30.03 in10.0 miCalmScattered Clouds
7:15 PM53.6 °F50.0 °F88 %30.01 in10.0 miCalmScattered Clouds
7:35 PM53.6 °F50.0 °F88 %30.02 in10.0 miCalmScattered Clouds
7:55 PM53.6 °F50.0 °F88 %30.03 in10.0 miSW (220°)4.6 mphScattered Clouds
8:15 PM53.6 °F50.0 °F88 %30.03 in10.0 miCalmRainLight Rain
8:35 PM53.6 °F50.0 °F88 %30.04 in10.0 miCalmClear
8:55 PM53.6 °F50.0 °F88 %30.08 in10.0 miSSW (200°)4.6 mphScattered Clouds
9:15 PM55.4 °F51.8 °F88 %30.07 in10.0 miSouth (180°)4.6 mphScattered Clouds
9:35 PM55.4 °F50.0 °F82 %30.06 in10.0 miSSW (200°)4.6 mphScattered Clouds
9:55 PM53.6 °F50.0 °F88 %30.06 in10.0 miCalmClear
10:15 PM53.6 °F50.0 °F88 %30.07 in10.0 miSSW (200°)4.6 mphClear
10:35 PM53.6 °F50.0 °F88 %30.06 in10.0 miCalmClear
10:55 PM53.6 °F50.0 °F88 %30.06 in10.0 miCalmClear
11:15 PM53.6 °F50.0 °F88 %30.08 in10.0 miCalmMostly Cloudy
11:35 PM53.6 °F50.0 °F88 %30.06 in10.0 miCalmOvercast
11:55 PM53.6 °F51.8 °F94 %30.06 in10.0 miCalmOvercast
Hourly data recorded from KMDQ, located miles away from Fayetteville, Tennessee







STORIES FROM OUR PARTNERS